BAW2MW EGLL-KLAS

Flight info

Callsign BAW2MW
Flight time N/A
Altitude 34000
Route UMLAT1G UMLAT T418 WELIN T420 TNT UN57 POL UN601 RIBEL DCT HAVEN DCT NALAN/M085F340 DCT 64N010W 68N020W/M085F360 70N030W 71N040W 71N060W DCT NADMA/N0489F360 DCT 71N070W 69N080W/N0492F380 65N092W 59N100W DCT POLLE DCT ITREK DCT LWT/N0482F400 DCT FFU J9 MLF DCT STEWW CHOWW4
Aircraft A35K/H-SBDE1E2E3GHIJ1J3J4J5J6M1M2P2RWXYZ/LB1D1

Departure

Time 2026-05-04 09:15
Airport London Heathrow Airport (EGLL)

Arrival

Time N/A
Airport Harry Reid International Airport (KLAS)
Time Latitude Longitude Altitude Speed Heading
2026-05-04 08:27 51.46984 -0.47733 95 ft 0 kts 89°
2026-05-04 08:55 51.46984 -0.47742 92 ft 4 kts 89°
2026-05-04 08:55 51.46984 -0.47785 91 ft 4 kts 89°
2026-05-04 08:55 51.46984 -0.47820 91 ft 4 kts 97°
2026-05-04 08:57 51.47043 -0.47870 92 ft 0 kts 179°
2026-05-04 09:01 51.47037 -0.47870 92 ft 0 kts 179°
2026-05-04 09:01 51.47036 -0.47870 92 ft 0 kts 179°
2026-05-04 09:03 51.47034 -0.47870 94 ft 1 kts 179°
2026-05-04 09:03 51.47007 -0.47869 92 ft 6 kts 179°
2026-05-04 09:04 51.46961 -0.47868 94 ft 8 kts 179°
2026-05-04 09:04 51.46901 -0.47868 92 ft 10 kts 180°
2026-05-04 09:04 51.46831 -0.47869 92 ft 10 kts 180°
2026-05-04 09:04 51.46759 -0.47849 96 ft 10 kts 140°
2026-05-04 09:05 51.46745 -0.47737 93 ft 11 kts 90°
2026-05-04 09:05 51.46744 -0.47605 92 ft 13 kts 90°
2026-05-04 09:05 51.46745 -0.47458 93 ft 14 kts 89°
2026-05-04 09:05 51.46746 -0.47297 95 ft 15 kts 89°
2026-05-04 09:06 51.46747 -0.47125 97 ft 16 kts 89°
2026-05-04 09:07 51.46750 -0.45686 94 ft 21 kts 89°
2026-05-04 09:08 51.46751 -0.45454 93 ft 21 kts 90°
2026-05-04 09:08 51.46751 -0.45225 92 ft 20 kts 90°
2026-05-04 09:08 51.46751 -0.45007 92 ft 20 kts 89°
2026-05-04 09:08 51.46752 -0.44787 92 ft 20 kts 90°
2026-05-04 09:09 51.46753 -0.44562 92 ft 21 kts 90°
2026-05-04 09:09 51.46753 -0.44394 94 ft 13 kts 89°
2026-05-04 09:09 51.46754 -0.44278 94 ft 10 kts 90°
2026-05-04 09:09 51.46754 -0.44180 95 ft 0 kts 90°
2026-05-04 09:10 51.46755 -0.44138 94 ft 10 kts 85°
2026-05-04 09:10 51.46768 -0.43999 95 ft 13 kts 84°
2026-05-04 09:10 51.46771 -0.43852 95 ft 13 kts 91°
2026-05-04 09:10 51.46767 -0.43701 92 ft 13 kts 91°
2026-05-04 09:11 51.46752 -0.43618 97 ft 6 kts 144°
2026-05-04 09:11 51.46706 -0.43606 93 ft 7 kts 178°
2026-05-04 09:11 51.46661 -0.43605 93 ft 4 kts 179°
2026-05-04 09:11 51.46657 -0.43605 92 ft 0 kts 179°
2026-05-04 09:12 51.46654 -0.43605 92 ft 1 kts 179°
2026-05-04 09:14 51.46496 -0.43675 94 ft 0 kts 264°
2026-05-04 09:14 51.46496 -0.43684 94 ft 2 kts 264°
2026-05-04 09:14 51.46493 -0.43798 95 ft 30 kts 268°
2026-05-04 09:14 51.46493 -0.44493 95 ft 92 kts 270°
2026-05-04 09:15 51.46488 -0.45824 92 ft 145 kts 270°
2026-05-04 09:15 51.46482 -0.47647 354 ft 165 kts 271°
2026-05-04 09:15 51.46457 -0.49429 938 ft 162 kts 272°
2026-05-04 09:15 51.46680 -0.51259 1316 ft 173 kts 292°
2026-05-04 09:17 51.53568 -0.68245 4271 ft 263 kts 346°
2026-05-04 09:18 51.55391 -0.68423 4846 ft 265 kts
2026-05-04 09:18 51.57244 -0.68408 5391 ft 268 kts 358°
2026-05-04 09:18 51.59115 -0.68560 5966 ft 271 kts 356°
2026-05-04 09:18 51.60991 -0.68746 6527 ft 274 kts 356°
2026-05-04 09:19 51.62904 -0.68952 7080 ft 277 kts 355°
2026-05-04 09:19 51.64839 -0.69164 7658 ft 280 kts 355°
2026-05-04 09:19 51.66801 -0.69380 8213 ft 285 kts 355°
2026-05-04 09:19 51.68793 -0.69597 8793 ft 288 kts 355°
2026-05-04 09:20 51.70804 -0.69817 9426 ft 290 kts 355°
2026-05-04 09:20 51.72831 -0.70044 10027 ft 293 kts 355°
2026-05-04 09:20 51.74899 -0.70279 10377 ft 305 kts 355°
2026-05-04 09:20 51.77044 -0.70524 10631 ft 321 kts 355°
2026-05-04 09:21 51.79303 -0.70783 10852 ft 336 kts 355°
2026-05-04 09:21 51.81682 -0.71053 11116 ft 350 kts 355°
2026-05-04 09:21 51.84162 -0.71333 11368 ft 364 kts 355°
2026-05-04 09:21 51.86735 -0.71622 11634 ft 376 kts 355°
2026-05-04 09:22 51.89377 -0.71918 12016 ft 384 kts 355°
2026-05-04 09:22 51.92062 -0.72218 12509 ft 388 kts 355°
2026-05-04 09:22 51.94630 -0.72506 13019 ft 391 kts 355°
2026-05-04 09:22 51.97382 -0.72815 13552 ft 395 kts 355°
2026-05-04 09:23 52.00034 -0.73131 14030 ft 398 kts 353°
2026-05-04 09:23 52.02757 -0.73936 14503 ft 399 kts 345°
2026-05-04 09:23 52.05451 -0.75101 14986 ft 402 kts 342°
2026-05-04 09:23 52.08133 -0.76418 15458 ft 404 kts 341°
2026-05-04 09:25 52.25328 -0.87620 18380 ft 419 kts 328°
2026-05-04 09:25 52.27851 -0.90032 18805 ft 422 kts 327°
2026-05-04 09:26 52.29853 -0.91988 19206 ft 422 kts 327°
2026-05-04 09:26 52.32220 -0.94321 19648 ft 423 kts 327°
2026-05-04 09:26 52.34751 -0.96820 20058 ft 426 kts 327°
2026-05-04 09:26 52.37298 -0.99327 20482 ft 429 kts 327°
2026-05-04 09:27 52.39842 -1.01824 20857 ft 433 kts 327°
2026-05-04 09:27 52.42421 -1.04352 21288 ft 436 kts 327°
2026-05-04 09:27 52.45038 -1.06913 21739 ft 438 kts 327°
2026-05-04 09:27 52.47644 -1.09465 22156 ft 441 kts 327°
2026-05-04 09:28 52.49606 -1.11388 22492 ft 443 kts 327°
2026-05-04 09:28 52.51990 -1.13728 22903 ft 446 kts 327°
2026-05-04 09:28 52.54655 -1.16349 23389 ft 448 kts 327°
2026-05-04 09:28 52.57348 -1.19001 23811 ft 451 kts 327°
2026-05-04 09:29 52.60047 -1.21662 24199 ft 454 kts 327°
2026-05-04 09:29 52.62736 -1.24319 24569 ft 456 kts 327°
2026-05-04 09:29 52.65465 -1.27018 24971 ft 458 kts 327°
2026-05-04 09:29 52.68110 -1.29637 25343 ft 461 kts 327°
2026-05-04 09:30 52.70831 -1.32336 25726 ft 463 kts 327°
2026-05-04 09:30 52.73483 -1.34971 26141 ft 466 kts 327°
2026-05-04 09:30 52.76269 -1.37744 26526 ft 468 kts 328°
2026-05-04 09:30 52.79065 -1.40531 26944 ft 470 kts 329°
2026-05-04 09:31 52.81904 -1.43363 27336 ft 472 kts 329°
2026-05-04 09:31 52.84329 -1.45786 27639 ft 475 kts 329°
2026-05-04 09:31 52.87157 -1.48614 28022 ft 477 kts 330°
2026-05-04 09:31 52.89997 -1.51460 28395 ft 479 kts 329°
2026-05-04 09:32 52.92645 -1.54120 28767 ft 480 kts 330°
2026-05-04 09:32 52.95517 -1.57009 29108 ft 482 kts 330°
2026-05-04 09:34 53.15802 -1.73497 31271 ft 481 kts 342°
2026-05-04 09:34 53.18941 -1.75431 31581 ft 481 kts 342°
2026-05-04 09:34 53.21995 -1.77310 31854 ft 481 kts 342°
2026-05-04 09:34 53.25133 -1.79249 32127 ft 480 kts 342°
2026-05-04 09:35 53.28257 -1.81188 32554 ft 477 kts 342°
2026-05-04 09:35 53.31363 -1.83123 32828 ft 477 kts 342°
2026-05-04 09:35 53.34478 -1.85069 33060 ft 478 kts 342°
2026-05-04 09:35 53.37574 -1.87009 33315 ft 478 kts 342°
2026-05-04 09:37 53.59494 -2.00838 34071 ft 484 kts 342°
2026-05-04 09:37 53.62641 -2.02837 34075 ft 484 kts 342°
2026-05-04 09:38 53.68944 -2.06851 34072 ft 484 kts 342°
2026-05-04 09:38 53.75194 -2.10843 34069 ft 481 kts 343°
2026-05-04 09:39 53.81398 -2.15000 34070 ft 479 kts 342°
2026-05-04 09:39 53.87571 -2.19274 34075 ft 479 kts 342°
2026-05-04 09:40 53.93747 -2.23539 34072 ft 479 kts 342°
2026-05-04 09:40 53.99918 -2.27784 34069 ft 478 kts 343°
2026-05-04 09:42 54.25175 -2.40133 34071 ft 471 kts 348°
2026-05-04 09:43 54.31485 -2.43144 34069 ft 470 kts 348°
2026-05-04 09:43 54.37787 -2.46164 34066 ft 470 kts 348°
2026-05-04 09:44 54.44083 -2.49192 34068 ft 470 kts 348°
2026-05-04 09:46 54.68096 -2.60823 34064 ft 467 kts 347°
2026-05-04 09:46 54.74353 -2.63875 34065 ft 467 kts 346°
2026-05-04 09:47 54.80597 -2.66934 34085 ft 466 kts 346°
2026-05-04 09:49 55.05467 -2.79211 34055 ft 464 kts 346°
2026-05-04 09:51 55.27176 -2.90057 34043 ft 464 kts 345°
2026-05-04 09:51 55.33400 -2.93191 34038 ft 465 kts 345°
2026-05-04 09:52 55.39614 -2.96329 34042 ft 465 kts 345°
2026-05-04 09:52 55.45834 -2.99480 34032 ft 465 kts 345°
2026-05-04 09:53 55.52071 -3.02489 34039 ft 464 kts 346°
2026-05-04 09:53 55.58305 -3.05324 34036 ft 462 kts 346°
2026-05-04 09:54 55.64530 -3.08174 34035 ft 462 kts 346°
2026-05-04 09:54 55.70747 -3.11063 34030 ft 462 kts 345°
2026-05-04 09:55 55.76927 -3.13957 34023 ft 462 kts 345°
2026-05-04 09:55 55.83134 -3.16876 34023 ft 462 kts 345°
2026-05-04 09:56 55.89347 -3.19808 34020 ft 462 kts 345°
2026-05-04 09:56 55.95556 -3.22745 34021 ft 462 kts 345°
2026-05-04 09:57 56.01769 -3.25694 34023 ft 462 kts 345°
2026-05-04 09:57 56.07991 -3.28657 34021 ft 462 kts 345°
2026-05-04 09:58 56.14195 -3.31621 34020 ft 462 kts 345°
2026-05-04 09:58 56.20401 -3.34596 34020 ft 462 kts 345°
2026-05-04 10:00 56.45191 -3.46580 34019 ft 462 kts 343°
2026-05-04 10:04 56.88511 -3.67914 34012 ft 460 kts 342°
2026-05-04 10:04 56.94695 -3.71004 34012 ft 460 kts 342°
2026-05-04 10:05 57.00839 -3.74083 34011 ft 460 kts 342°
2026-05-04 10:05 57.07029 -3.77193 34021 ft 460 kts 342°
2026-05-04 10:06 57.13185 -3.80298 34014 ft 458 kts 342°
2026-05-04 10:06 57.19243 -3.83366 34011 ft 458 kts 342°
2026-05-04 10:08 57.40713 -3.94317 34013 ft 456 kts 341°
2026-05-04 10:08 57.46836 -3.97465 34021 ft 456 kts 341°
2026-05-04 10:09 57.52908 -4.00599 34021 ft 456 kts 341°
2026-05-04 10:09 57.59020 -4.03765 34044 ft 456 kts 341°
2026-05-04 10:10 57.65135 -4.06941 34019 ft 456 kts 340°
2026-05-04 10:10 57.71242 -4.10127 33990 ft 456 kts 340°
2026-05-04 10:11 57.77347 -4.13321 33989 ft 456 kts 340°
2026-05-04 10:11 57.83434 -4.16518 33986 ft 456 kts 340°
2026-05-04 10:12 57.89533 -4.19729 33989 ft 453 kts 340°
2026-05-04 10:12 57.95585 -4.22926 33997 ft 451 kts 340°
2026-05-04 10:13 58.01622 -4.26130 33985 ft 451 kts 340°
2026-05-04 10:13 58.07661 -4.29348 33982 ft 451 kts 340°
2026-05-04 10:14 58.13701 -4.32576 33994 ft 451 kts 339°
2026-05-04 10:16 58.37849 -4.45594 33975 ft 451 kts 339°
2026-05-04 10:16 58.43845 -4.48854 33975 ft 451 kts 339°
2026-05-04 10:17 58.49880 -4.52147 33974 ft 450 kts 339°
2026-05-04 10:19 58.73991 -4.65429 33960 ft 450 kts 339°
2026-05-04 10:19 58.79971 -4.68751 33960 ft 450 kts 339°
2026-05-04 10:20 58.85994 -4.72110 33960 ft 450 kts 339°
2026-05-04 10:20 58.92013 -4.75479 33961 ft 450 kts 339°
2026-05-04 10:21 58.98028 -4.78855 33957 ft 448 kts 338°
2026-05-04 10:21 59.03997 -4.82218 33961 ft 446 kts 338°
2026-05-04 10:22 59.12930 -4.87281 33958 ft 446 kts 338°
2026-05-04 10:23 59.18885 -4.90671 33958 ft 446 kts 338°
2026-05-04 10:25 59.42543 -5.04253 33960 ft 442 kts 338°
2026-05-04 10:25 59.48452 -5.07677 33960 ft 442 kts 338°
2026-05-04 10:26 59.54359 -5.11109 33962 ft 441 kts 337°
2026-05-04 10:26 59.60230 -5.14533 33963 ft 440 kts 337°
2026-05-04 10:27 59.66091 -5.17968 33968 ft 440 kts 337°
2026-05-04 10:27 59.71962 -5.21422 33968 ft 440 kts 337°
2026-05-04 10:28 59.77829 -5.24884 33973 ft 440 kts 337°
2026-05-04 10:28 59.83690 -5.28353 33974 ft 440 kts 336°
2026-05-04 10:29 59.89514 -5.31816 33978 ft 440 kts 336°
2026-05-04 10:29 59.95383 -5.35319 33982 ft 440 kts 336°
2026-05-04 10:30 60.01246 -5.38830 33982 ft 440 kts 336°
2026-05-04 10:30 60.07108 -5.42352 34035 ft 440 kts 336°
2026-05-04 10:31 60.12966 -5.45882 33986 ft 439 kts 336°
2026-05-04 10:32 60.33385 -5.58304 33987 ft 439 kts 336°
2026-05-04 10:33 60.39232 -5.61890 33983 ft 439 kts 335°
2026-05-04 10:33 60.45072 -5.65486 34001 ft 439 kts 335°
2026-05-04 10:34 60.50908 -5.69094 34005 ft 439 kts 335°
2026-05-04 10:34 60.56749 -5.72718 33991 ft 439 kts 335°
2026-05-04 10:35 60.62589 -5.76354 33993 ft 439 kts 335°
2026-05-04 10:35 60.68426 -5.80003 34000 ft 439 kts 335°
2026-05-04 10:36 60.73286 -5.83052 34002 ft 439 kts 335°
2026-05-04 10:36 60.79129 -5.86730 34005 ft 439 kts 335°
2026-05-04 10:37 60.84974 -5.90423 34001 ft 439 kts 335°
2026-05-04 10:37 60.90813 -5.94127 34008 ft 439 kts 335°
2026-05-04 10:39 61.07351 -6.08627 34011 ft 426 kts 324°
2026-05-04 10:39 61.09913 -6.11679 34014 ft 425 kts 323°
2026-05-04 10:40 61.14992 -6.17791 34009 ft 425 kts 323°
2026-05-04 10:40 61.20117 -6.23967 34050 ft 426 kts 323°
2026-05-04 10:41 61.25225 -6.30122 34024 ft 424 kts 323°
2026-05-04 10:41 61.30337 -6.36300 34006 ft 425 kts 323°
2026-05-04 10:42 61.35438 -6.42487 34005 ft 425 kts 323°
2026-05-04 10:42 61.40540 -6.48701 34024 ft 424 kts 323°
2026-05-04 10:43 61.45640 -6.54936 34001 ft 425 kts 323°
2026-05-04 10:45 61.65977 -6.80036 34019 ft 424 kts 323°
2026-05-04 10:45 61.71057 -6.86368 34000 ft 424 kts 323°
2026-05-04 10:46 61.76137 -6.92722 34037 ft 424 kts 322°
2026-05-04 10:46 61.81219 -6.99105 34001 ft 425 kts 322°
2026-05-04 10:47 61.86293 -7.05507 33999 ft 425 kts 322°
2026-05-04 10:47 61.91365 -7.11928 33994 ft 425 kts 322°
2026-05-04 10:49 62.11639 -7.37839 33989 ft 425 kts 322°
2026-05-04 10:50 62.16700 -7.44373 33995 ft 425 kts 321°
2026-05-04 10:52 62.36894 -7.70697 34001 ft 422 kts 321°
2026-05-04 10:52 62.41895 -7.77279 34002 ft 421 kts 321°
2026-05-04 10:54 62.61827 -8.03791 34028 ft 421 kts 322°
2026-05-04 10:56 62.81781 -8.30753 34013 ft 422 kts 321°
2026-05-04 10:57 62.86759 -8.37548 34012 ft 422 kts 321°
2026-05-04 10:57 62.91741 -8.44381 34019 ft 424 kts 322°
2026-05-04 10:58 62.96726 -8.51244 34014 ft 426 kts 322°
2026-05-04 10:58 63.01754 -8.58187 34012 ft 426 kts 322°
2026-05-04 10:59 63.06770 -8.65143 34012 ft 426 kts 322°
2026-05-04 10:59 63.11783 -8.72127 34012 ft 426 kts 322°
2026-05-04 11:00 63.16796 -8.79141 34084 ft 426 kts 322°
2026-05-04 11:02 63.37042 -9.07763 34020 ft 433 kts 322°
2026-05-04 11:05 63.75060 -9.62846 34028 ft 434 kts 322°
2026-05-04 11:06 63.80144 -9.70354 34022 ft 438 kts 322°
2026-05-04 11:06 63.85245 -9.77914 34023 ft 438 kts 322°
2026-05-04 11:10 64.18762 -10.37490 34023 ft 436 kts 315°
2026-05-04 11:12 64.36870 -10.74389 34023 ft 434 kts 315°
2026-05-04 11:12 64.41376 -10.83676 34023 ft 434 kts 315°
2026-05-04 11:13 64.45856 -10.92952 34023 ft 434 kts 315°
2026-05-04 11:13 64.50352 -11.02304 34037 ft 434 kts 315°
2026-05-04 11:14 64.54850 -11.11705 34037 ft 434 kts 315°
2026-05-04 11:16 64.72867 -11.49789 34035 ft 436 kts 315°
2026-05-04 11:16 64.77338 -11.59356 34034 ft 436 kts 315°
2026-05-04 11:17 64.81810 -11.68967 34028 ft 436 kts 314°
2026-05-04 11:19 64.99868 -12.08244 34038 ft 445 kts 315°
2026-05-04 11:19 65.04400 -12.18221 34029 ft 445 kts 315°
2026-05-04 11:20 65.08927 -12.28234 34042 ft 445 kts 314°
2026-05-04 11:20 65.13450 -12.38291 34033 ft 447 kts 315°
2026-05-04 11:22 65.31550 -12.79020 34040 ft 445 kts 314°
2026-05-04 11:23 65.36042 -12.89255 34034 ft 445 kts 314°
2026-05-04 11:25 65.51805 -13.25579 34038 ft 450 kts 314°
2026-05-04 11:25 65.55544 -13.34288 34035 ft 450 kts 314°
2026-05-04 11:27 65.75779 -13.82069 34034 ft 453 kts 314°
2026-05-04 11:28 65.80266 -13.92815 34037 ft 453 kts 314°
2026-05-04 11:28 65.84725 -14.03548 34054 ft 453 kts 314°
2026-05-04 11:29 65.89203 -14.14383 34065 ft 453 kts 314°
2026-05-04 11:29 65.93670 -14.25252 34064 ft 454 kts 314°
2026-05-04 11:33 66.25060 -15.03236 34074 ft 456 kts 313°
2026-05-04 11:33 66.29495 -15.14492 34074 ft 456 kts 313°
2026-05-04 11:34 66.33928 -15.25805 34077 ft 456 kts 313°
2026-05-04 11:34 66.38348 -15.37145 34079 ft 456 kts 313°
2026-05-04 11:35 66.42761 -15.48528 34079 ft 456 kts 313°
2026-05-04 11:35 66.47141 -15.59887 34088 ft 458 kts 313°
2026-05-04 11:36 66.51559 -15.71409 34095 ft 460 kts 313°
2026-05-04 11:36 66.55984 -15.83007 34097 ft 460 kts 313°
2026-05-04 11:37 66.60397 -15.94643 34097 ft 460 kts 313°
2026-05-04 11:37 66.64799 -16.06310 34094 ft 460 kts 313°
2026-05-04 11:38 66.69197 -16.18032 34078 ft 459 kts 313°
2026-05-04 11:38 66.73575 -16.29767 34119 ft 459 kts 313°
2026-05-04 11:39 66.77952 -16.41566 34117 ft 461 kts 313°
2026-05-04 11:41 66.93247 -16.83314 34131 ft 461 kts 312°
2026-05-04 11:41 66.97597 -16.95340 34130 ft 461 kts 312°
2026-05-04 11:42 67.01912 -17.07334 34130 ft 461 kts 312°
2026-05-04 11:42 67.06239 -17.19433 34131 ft 461 kts 312°
2026-05-04 11:43 67.10565 -17.31595 34147 ft 461 kts 312°
2026-05-04 11:43 67.14879 -17.43795 34147 ft 461 kts 311°
2026-05-04 11:44 67.19179 -17.56024 34141 ft 460 kts 311°
2026-05-04 11:44 67.23455 -17.68258 34150 ft 458 kts 311°
2026-05-04 11:45 67.27724 -17.80542 34167 ft 460 kts 311°
2026-05-04 11:45 67.32000 -17.92913 34167 ft 461 kts 311°
2026-05-04 11:46 67.36234 -18.05236 34177 ft 461 kts 311°
2026-05-04 11:46 67.40487 -18.17684 34175 ft 461 kts 311°
2026-05-04 11:47 67.44736 -18.30195 34180 ft 461 kts 311°
2026-05-04 11:47 67.48966 -18.42725 34217 ft 461 kts 311°
2026-05-04 11:48 67.53207 -18.55359 34193 ft 463 kts 311°
2026-05-04 11:48 67.57449 -18.68071 34199 ft 464 kts 311°
2026-05-04 11:49 67.61681 -18.80830 34199 ft 464 kts 310°
2026-05-04 11:49 67.65882 -18.93570 34208 ft 464 kts 310°
2026-05-04 11:50 67.70089 -19.06399 34223 ft 461 kts 310°
2026-05-04 11:50 67.74258 -19.19196 34228 ft 460 kts 310°
2026-05-04 11:51 67.78436 -19.32099 34230 ft 463 kts 310°
2026-05-04 11:51 67.82609 -19.45061 34231 ft 463 kts 310°
2026-05-04 11:52 67.86774 -19.58074 34237 ft 463 kts 310°
2026-05-04 11:52 67.90931 -19.71142 34233 ft 463 kts 310°
2026-05-04 11:53 67.95077 -19.84257 34241 ft 463 kts 309°
2026-05-04 11:53 67.99191 -19.97412 34636 ft 459 kts 308°
2026-05-04 11:53 68.01038 -20.04282 35019 ft 454 kts 304°
2026-05-04 11:55 68.13347 -20.53851 36233 ft 456 kts 303°
2026-05-04 11:56 68.16842 -20.68209 36270 ft 463 kts 303°
2026-05-04 11:56 68.20345 -20.82685 36272 ft 466 kts 303°
2026-05-04 11:57 68.23876 -20.97376 36288 ft 468 kts 303°
2026-05-04 11:57 68.27379 -21.12045 36286 ft 463 kts 303°
2026-05-04 11:58 68.30855 -21.26702 36293 ft 465 kts 302°
2026-05-04 11:58 68.34337 -21.41485 36301 ft 465 kts 302°
2026-05-04 11:59 68.37788 -21.56240 36301 ft 461 kts 302°
2026-05-04 11:59 68.41200 -21.70926 36307 ft 459 kts 302°
2026-05-04 12:00 68.44607 -21.85689 36332 ft 463 kts 302°
2026-05-04 12:00 68.48045 -22.00689 36317 ft 470 kts 302°
2026-05-04 12:01 68.51490 -22.15823 36323 ft 469 kts 302°
2026-05-04 12:02 68.63419 -22.69068 36349 ft 470 kts 301°
2026-05-04 12:03 68.66800 -22.84404 36361 ft 470 kts 301°
2026-05-04 12:03 68.70179 -22.99840 36347 ft 472 kts 301°
2026-05-04 12:04 68.73557 -23.15384 36346 ft 473 kts 301°
2026-05-04 12:04 68.76919 -23.30963 36357 ft 472 kts 301°
2026-05-04 12:05 68.80256 -23.46543 36355 ft 471 kts 300°
2026-05-04 12:05 68.83572 -23.62138 36358 ft 471 kts 300°
2026-05-04 12:06 68.86878 -23.77800 36363 ft 471 kts 300°
2026-05-04 12:06 68.90169 -23.93506 36364 ft 472 kts 300°
2026-05-04 12:07 68.93461 -24.09333 36359 ft 473 kts 300°
2026-05-04 12:07 68.96742 -24.25225 36362 ft 473 kts 300°
2026-05-04 12:08 69.00006 -24.41156 36362 ft 473 kts 300°
2026-05-04 12:08 69.03255 -24.57129 36369 ft 473 kts 299°
2026-05-04 12:09 69.06491 -24.73160 36350 ft 473 kts 299°
2026-05-04 12:09 69.09702 -24.89192 36384 ft 472 kts 299°
2026-05-04 12:10 69.12901 -25.05285 36371 ft 473 kts 299°
2026-05-04 12:10 69.16072 -25.21357 36383 ft 474 kts 298°
2026-05-04 12:11 69.19248 -25.37581 36397 ft 474 kts 298°
2026-05-04 12:11 69.22411 -25.53862 36398 ft 474 kts 298°
2026-05-04 12:12 69.25560 -25.70196 36436 ft 474 kts 298°
2026-05-04 12:12 69.28688 -25.86554 36436 ft 474 kts 298°
2026-05-04 12:14 69.40532 -26.49664 36476 ft 471 kts 297°
2026-05-04 12:15 69.43567 -26.66157 36478 ft 471 kts 297°
2026-05-04 12:15 69.46588 -26.82699 36479 ft 471 kts 297°
2026-05-04 12:16 69.49554 -26.99071 36505 ft 471 kts 297°
2026-05-04 12:16 69.52553 -27.15761 36497 ft 473 kts 297°
2026-05-04 12:17 69.55540 -27.32513 36473 ft 473 kts 297°
2026-05-04 12:17 69.58513 -27.49328 36488 ft 473 kts 296°
2026-05-04 12:18 69.61459 -27.66130 36490 ft 473 kts 296°
2026-05-04 12:18 69.64397 -27.83025 36490 ft 473 kts 296°
2026-05-04 12:19 69.67316 -27.99944 36483 ft 471 kts 296°
2026-05-04 12:19 69.70211 -28.16872 36488 ft 472 kts 296°
2026-05-04 12:20 69.73099 -28.33893 36497 ft 473 kts 296°
2026-05-04 12:20 69.75972 -28.50979 36497 ft 473 kts 295°
2026-05-04 12:21 69.78830 -28.68118 36476 ft 473 kts 295°
2026-05-04 12:21 69.81673 -28.85315 36487 ft 473 kts 295°
2026-05-04 12:22 69.84499 -29.02550 36487 ft 473 kts 295°
2026-05-04 12:22 69.87290 -29.19724 36498 ft 473 kts 295°
2026-05-04 12:23 69.90086 -29.37078 36496 ft 475 kts 295°
2026-05-04 12:23 69.92875 -29.54538 36485 ft 475 kts 294°
2026-05-04 12:24 69.95634 -29.71966 36521 ft 473 kts 294°
2026-05-04 12:24 69.98373 -29.89424 36522 ft 473 kts 294°
2026-05-04 12:25 70.01068 -30.06931 36521 ft 473 kts 292°
2026-05-04 12:25 70.03454 -30.24848 36540 ft 473 kts 290°
2026-05-04 12:26 70.05735 -30.42915 36544 ft 474 kts 290°
2026-05-04 12:26 70.08044 -30.61025 36511 ft 475 kts 290°
2026-05-04 12:27 70.10371 -30.79177 36511 ft 475 kts 290°
2026-05-04 12:27 70.12689 -30.97351 36511 ft 475 kts 290°
2026-05-04 12:28 70.14976 -31.15479 36458 ft 475 kts 290°
2026-05-04 12:28 70.17250 -31.33700 36471 ft 473 kts 290°
2026-05-04 12:29 70.19500 -31.51929 36471 ft 473 kts 290°
2026-05-04 12:29 70.21729 -31.70177 36456 ft 474 kts 289°
2026-05-04 12:30 70.23950 -31.88549 36443 ft 475 kts 289°
2026-05-04 12:30 70.26154 -32.06976 36444 ft 475 kts 289°
2026-05-04 12:31 70.28338 -32.25434 36435 ft 475 kts 289°
2026-05-04 12:31 70.30505 -32.43952 36430 ft 475 kts 289°
2026-05-04 12:32 70.33718 -32.71776 36427 ft 475 kts 289°
2026-05-04 12:33 70.35834 -32.90357 36431 ft 474 kts 288°
2026-05-04 12:33 70.37928 -33.08950 36427 ft 474 kts 288°
2026-05-04 12:34 70.39991 -33.27471 36417 ft 475 kts 288°
2026-05-04 12:34 70.42051 -33.46182 36417 ft 475 kts 288°
2026-05-04 12:35 70.44091 -33.64920 36417 ft 475 kts 288°
2026-05-04 12:35 70.46111 -33.83687 36408 ft 475 kts 288°
2026-05-04 12:36 70.48112 -34.02504 36407 ft 475 kts 287°
2026-05-04 12:36 70.50093 -34.21345 36406 ft 476 kts 287°
2026-05-04 12:37 70.52066 -34.40340 36405 ft 478 kts 287°
2026-05-04 12:37 70.54021 -34.59367 36395 ft 477 kts 287°
2026-05-04 12:38 70.55947 -34.78367 36394 ft 475 kts 287°
2026-05-04 12:38 70.57850 -34.97366 36395 ft 475 kts 287°
2026-05-04 12:39 70.59731 -35.16388 36389 ft 475 kts 286°
2026-05-04 12:39 70.61595 -35.35457 36390 ft 475 kts 286°
2026-05-04 12:40 70.63439 -35.54570 36394 ft 477 kts 286°
2026-05-04 12:40 70.65272 -35.73810 36392 ft 478 kts 286°
2026-05-04 12:41 70.67087 -35.93096 36384 ft 478 kts 285°
2026-05-04 12:41 70.68870 -36.12301 36384 ft 478 kts 285°
2026-05-04 12:42 70.70643 -36.31647 36380 ft 478 kts 285°
2026-05-04 12:42 70.72395 -36.51034 36376 ft 478 kts 285°
2026-05-04 12:43 70.74128 -36.70461 36377 ft 478 kts 285°
2026-05-04 12:43 70.75842 -36.89944 36378 ft 480 kts 285°
2026-05-04 12:44 70.77544 -37.09547 36377 ft 481 kts 284°
2026-05-04 12:44 70.79226 -37.29208 36370 ft 481 kts 284°
2026-05-04 12:45 70.80875 -37.48752 36367 ft 481 kts 284°
2026-05-04 12:45 70.82513 -37.68449 36368 ft 481 kts 284°
2026-05-04 12:46 70.84129 -37.88167 36362 ft 481 kts 284°
2026-05-04 12:46 70.85723 -38.07900 36368 ft 478 kts 284°
2026-05-04 12:47 70.87289 -38.27582 36367 ft 478 kts 283°
2026-05-04 12:47 70.88833 -38.47275 36371 ft 477 kts 283°
2026-05-04 12:48 70.90357 -38.67025 36378 ft 478 kts 283°
2026-05-04 12:48 70.91860 -38.86793 36379 ft 478 kts 283°
2026-05-04 12:49 70.93341 -39.06581 36379 ft 478 kts 283°
2026-05-04 12:49 70.94801 -39.26410 36379 ft 478 kts 283°
2026-05-04 12:50 70.96241 -39.46269 36392 ft 478 kts 283°
2026-05-04 12:50 70.97662 -39.66206 36366 ft 478 kts 282°
2026-05-04 12:51 70.99059 -39.86110 36392 ft 477 kts 282°
2026-05-04 12:51 71.00424 -40.06052 36401 ft 477 kts 281°
2026-05-04 12:52 71.01519 -40.26005 36400 ft 477 kts 279°
2026-05-04 12:52 71.02505 -40.46192 36401 ft 477 kts 279°
2026-05-04 12:53 71.03498 -40.66359 36409 ft 477 kts 279°
2026-05-04 12:53 71.04498 -40.86525 36416 ft 477 kts 279°
2026-05-04 12:54 71.05488 -41.06771 36414 ft 479 kts 279°
2026-05-04 12:54 71.06459 -41.27076 36419 ft 480 kts 279°
2026-05-04 12:55 71.07407 -41.47414 36420 ft 478 kts 278°
2026-05-04 12:55 71.08327 -41.67660 36435 ft 477 kts 278°
2026-05-04 12:56 71.09218 -41.87769 36431 ft 476 kts 278°
2026-05-04 12:56 71.10092 -42.08018 36440 ft 476 kts 278°
2026-05-04 12:57 71.10945 -42.28294 36454 ft 477 kts 278°
2026-05-04 12:57 71.11778 -42.48627 36453 ft 478 kts 278°
2026-05-04 12:58 71.12589 -42.68988 36451 ft 478 kts 277°
2026-05-04 12:58 71.13378 -42.89372 36469 ft 478 kts 277°
2026-05-04 12:59 71.14145 -43.09770 36443 ft 478 kts 277°
2026-05-04 12:59 71.14763 -43.26712 36467 ft 476 kts 277°
2026-05-04 13:00 71.15485 -43.47033 36479 ft 475 kts 277°
2026-05-04 13:00 71.16185 -43.67334 36482 ft 475 kts 277°
2026-05-04 13:01 71.16971 -43.90994 36480 ft 476 kts 276°
2026-05-04 13:01 71.17521 -44.08085 36481 ft 477 kts 276°
2026-05-04 13:02 71.18152 -44.28383 36481 ft 477 kts 276°
2026-05-04 13:02 71.18766 -44.48838 36481 ft 477 kts 276°
2026-05-04 13:03 71.19358 -44.69314 36484 ft 477 kts 276°
2026-05-04 13:03 71.19926 -44.89777 36481 ft 476 kts 276°
2026-05-04 13:04 71.20470 -45.10174 36491 ft 473 kts 276°
2026-05-04 13:04 71.20991 -45.30530 36490 ft 474 kts 275°
2026-05-04 13:05 71.21492 -45.50950 36489 ft 475 kts 275°
2026-05-04 13:05 71.21970 -45.71381 36492 ft 475 kts 275°
2026-05-04 13:06 71.22426 -45.91834 36492 ft 475 kts 275°
2026-05-04 13:06 71.22860 -46.12317 36492 ft 475 kts 275°
2026-05-04 13:07 71.23268 -46.32650 36507 ft 475 kts 274°
2026-05-04 13:07 71.23658 -46.53130 36509 ft 475 kts 274°
2026-05-04 13:08 71.24023 -46.73581 36513 ft 473 kts 274°
2026-05-04 13:08 71.24366 -46.93982 36517 ft 472 kts 274°
2026-05-04 13:09 71.24687 -47.14389 36524 ft 472 kts 274°
2026-05-04 13:09 71.24986 -47.34790 36520 ft 472 kts 274°
2026-05-04 13:10 71.25263 -47.55176 36522 ft 472 kts 274°
2026-05-04 13:10 71.25517 -47.75598 36518 ft 472 kts 273°
2026-05-04 13:11 71.25748 -47.95909 36515 ft 472 kts 273°
2026-05-04 13:11 71.25959 -48.16328 36516 ft 473 kts 273°
2026-05-04 13:12 71.26147 -48.36807 36507 ft 474 kts 273°
2026-05-04 13:12 71.26313 -48.57241 36524 ft 471 kts 272°
2026-05-04 13:13 71.26456 -48.77592 36530 ft 470 kts 272°
2026-05-04 13:13 71.26577 -48.97942 36521 ft 470 kts 272°
2026-05-04 13:14 71.26676 -49.18285 36538 ft 470 kts 272°
2026-05-04 13:14 71.26754 -49.38646 36553 ft 470 kts 272°
2026-05-04 13:15 71.26809 -49.58991 36557 ft 471 kts 271°
2026-05-04 13:15 71.26842 -49.79402 36545 ft 472 kts 271°
2026-05-04 13:16 71.26854 -49.99825 36554 ft 472 kts 271°
2026-05-04 13:16 71.26842 -50.20074 36550 ft 470 kts 271°
2026-05-04 13:17 71.26809 -50.40345 36556 ft 468 kts 271°
2026-05-04 13:17 71.26755 -50.60598 36527 ft 468 kts 271°
2026-05-04 13:18 71.26679 -50.80841 36530 ft 468 kts 270°
2026-05-04 13:18 71.26582 -51.01050 36529 ft 468 kts 270°
2026-05-04 13:19 71.26462 -51.21301 36501 ft 469 kts 270°
2026-05-04 13:19 71.26321 -51.41582 36496 ft 469 kts 270°
2026-05-04 13:20 71.26157 -51.61880 36500 ft 469 kts 270°
2026-05-04 13:20 71.25972 -51.82159 36498 ft 469 kts 270°
2026-05-04 13:21 71.25764 -52.02398 36483 ft 467 kts 270°
2026-05-04 13:21 71.25535 -52.22526 36483 ft 466 kts 269°
2026-05-04 13:22 71.25286 -52.42657 36487 ft 466 kts 269°
2026-05-04 13:22 71.25018 -52.62763 36479 ft 465 kts 269°
2026-05-04 13:23 71.24723 -52.82867 36472 ft 466 kts 269°
2026-05-04 13:23 71.24411 -53.02978 36473 ft 466 kts 269°
2026-05-04 13:24 71.24082 -53.22948 36474 ft 466 kts 268°
2026-05-04 13:24 71.23726 -53.43037 36473 ft 466 kts 268°
2026-05-04 13:25 71.23151 -53.73155 36477 ft 466 kts 268°
2026-05-04 13:25 71.22742 -53.93224 36466 ft 466 kts 268°
2026-05-04 13:26 71.22310 -54.13309 36465 ft 467 kts 268°
2026-05-04 13:26 71.21856 -54.33420 36470 ft 467 kts 267°
2026-05-04 13:27 71.21380 -54.53533 36467 ft 467 kts 267°
2026-05-04 13:27 71.20883 -54.73628 36465 ft 467 kts 267°
2026-05-04 13:28 71.20364 -54.93733 36464 ft 467 kts 267°
2026-05-04 13:28 71.19824 -55.13807 36472 ft 467 kts 266°
2026-05-04 13:29 71.19262 -55.33886 36436 ft 467 kts 266°
2026-05-04 13:29 71.18686 -55.53716 36460 ft 464 kts 266°
2026-05-04 13:30 71.18086 -55.73601 36469 ft 463 kts 266°
2026-05-04 13:30 71.17462 -55.93597 36471 ft 463 kts 266°
2026-05-04 13:31 71.16826 -56.13304 36465 ft 464 kts 266°
2026-05-04 13:31 71.16164 -56.33147 36477 ft 464 kts 265°
2026-05-04 13:32 71.15480 -56.53000 36472 ft 464 kts 265°
2026-05-04 13:32 71.14776 -56.72811 36476 ft 464 kts 265°
2026-05-04 13:33 71.14051 -56.92627 36483 ft 464 kts 265°
2026-05-04 13:33 71.13303 -57.12462 36468 ft 464 kts 265°
2026-05-04 13:34 71.12537 -57.32168 36482 ft 461 kts 265°
2026-05-04 13:34 71.11754 -57.51801 36492 ft 460 kts 264°
2026-05-04 13:35 71.10543 -57.81196 36492 ft 460 kts 264°
2026-05-04 13:36 71.09709 -58.00775 36493 ft 460 kts 264°
2026-05-04 13:36 71.08859 -58.20246 36501 ft 460 kts 264°
2026-05-04 13:37 71.07984 -58.39805 36505 ft 461 kts 264°
2026-05-04 13:37 71.07087 -58.59386 36503 ft 461 kts 263°
2026-05-04 13:38 71.06170 -58.78932 36482 ft 461 kts 263°
2026-05-04 13:38 71.05235 -58.98402 36512 ft 458 kts 263°
2026-05-04 13:39 71.04283 -59.17780 36519 ft 458 kts 263°
2026-05-04 13:39 71.03312 -59.37124 36519 ft 458 kts 263°
2026-05-04 13:40 71.02321 -59.56470 36522 ft 458 kts 263°
2026-05-04 13:40 71.01310 -59.75784 36537 ft 458 kts 262°
2026-05-04 13:41 71.00340 -59.95118 36527 ft 458 kts 266°
2026-05-04 13:41 71.00380 -60.14581 36527 ft 456 kts 274°
2026-05-04 13:42 71.01102 -60.43757 36535 ft 457 kts 275°
2026-05-04 13:42 71.01597 -60.63070 36535 ft 457 kts 275°
2026-05-04 13:43 71.02058 -60.82511 36535 ft 455 kts 274°
2026-05-04 13:43 71.02483 -61.01876 36552 ft 454 kts 274°
2026-05-04 13:44 71.02885 -61.21251 36537 ft 455 kts 274°
2026-05-04 13:44 71.03269 -61.40665 36548 ft 455 kts 274°
2026-05-04 13:45 71.03635 -61.60130 36547 ft 456 kts 274°
2026-05-04 13:45 71.03980 -61.79593 36552 ft 456 kts 273°
2026-05-04 13:46 71.04305 -61.99052 36550 ft 456 kts 273°
2026-05-04 13:46 71.04559 -62.15227 36552 ft 456 kts 273°
2026-05-04 13:47 71.04847 -62.34692 36555 ft 456 kts 273°
2026-05-04 13:47 71.05115 -62.54210 36554 ft 456 kts 272°
2026-05-04 13:48 71.05362 -62.73722 36560 ft 456 kts 272°
2026-05-04 13:48 71.05589 -62.93245 36558 ft 456 kts 272°
2026-05-04 13:49 71.05795 -63.12768 36556 ft 456 kts 272°
2026-05-04 13:49 71.05981 -63.32286 36564 ft 456 kts 272°
2026-05-04 13:50 71.06148 -63.51789 36558 ft 455 kts 271°
2026-05-04 13:50 71.06292 -63.71251 36562 ft 455 kts 271°